Location: Grasslands National Park East Block
(49.0708°N, 106.5295°W)
Time: 03:44:08
(UTC-06:00)

Vanguard 1 - Pass Details

Date: 22 September 2019
Orbit: 653 x 3830 km, 34.3° (Epoch: 14 October)

Event Time Altitude Azimuth Distance (km) Brightness Sun altitude
Rises 06:00:30 0° 262° (W) 7,967 - -9.3°
Exits shadow 06:05:53 - 258° (WSW) 6,946 13.7 -8.4°
Reaches altitude 10° 06:06:27 10° 258° (WSW) 6,838 13.6 -8.3°
Maximum altitude 06:26:10 46° 195° (SSW) 3,573 12.8 -5.1°
Drops below altitude 10° 06:38:38 10° 127° (SE) 4,461 14.2 -3.1°
Sets 06:41:36 0° 121° (ESE) 5,105 14.8 -2.6°
